SL-14 R/B

Satellite information

Favourite Embed

Satellite Type and Status

ROCKET BODYIN ORBIT

Key statistics

Satellite SL-14 R/B at a glance.

Uptime

13872

Days in orbit

Revolutions

≈ 14.9

Per day

Orbit

LEO

Low Earth Orbit

Inclination

82.5

Latest

Satellite identification and parameters

Extended collection of information and parameters for SL-14 R/B.

Object identification

Identified? True

Debris? False

Object name: SL-14 R/B

International designator: 1987-062B

Object number (NORAD): 18215

Object ID (CCSDS): 18215

Country: COMMONWEALTH OF INDEPENDENT STATES (CIS)

Current information (Y/N): Y

RCS size: LARGE

Orbital parameters

Period: 96.95 minutes

Inclination: 82.5108 deg

SMA: 6990.757 km

Apoapsis: 626.969 km

Periapsis: 598.276 km

RAAN: 44.7331 deg

Eccentricy: 0.0020522

Argument of periapsis: 143.1254 deg

Mean anomaly: 274.1422 deg

Mean motion: 14.85307612 rev/day

Mean motion (dot): 0.00000343 rev/day2

B* drag term: 0.000036911 1/REarth

Two-line elements (TLE)

Creation date: July 6, 2025, 6:05 p.m.

Reference frame: TEME

Reference center: EARTH

Epoch: July 6, 2025, 3:40 p.m. UTC

TLE line 0: 0 SL-14 R/B

TLE line 1: 1 18215U 87062B 25187.65291917 .00000343 00000-0 36911-4 0 9997

TLE line 2: 2 18215 82.5108 44.7331 0020522 143.1254 274.1422 14.85307612 30985

Live tracking on map

Real-time ground track for satellite SL-14 R/B.

In-orbit conjunctions

A list of the most updated potential collisions computed for object SL-14 R/B.

Target Orbit TCA Probability of collision Miss distance Type
SL-24 DEB SSO 2024-12-18 23:49:19 0.0001816549 284.0 (m) DEBRIS
DELTA 1 DEB LEO 2024-11-26 07:59:25 0.0004278899 81.0 (m) DEBRIS
CZ-6A DEB SSO 2024-07-01 13:18:22 0.0006893015 110.0 (m) DEBRIS

Associated space launch

Ocean observation satellite

SL-14 R/B was lifted into orbit during the mission ‘Tsiklon-3 | Okean-O1 2’, on board a Tsiklon-3 space rocket.

The launch took place on July 16, 1987, 4:25 a.m. from 32/2.

For more information about the launch, click the button.

Launch to space Tsiklon-3 | Okean-O1 2
Tsiklon-3 | Okean-O1 2

Agency: N/A

Status: Launch Successful

Launch date: July 16, 1987, 4:25 a.m. UTC

Rocket: Tsiklon-3

Launch pad: 32/2

Location: Plesetsk Cosmodrome, Russian Federation

...

Latest news about this satellite

There are no fresh news available about this satellite. Check back as we update our databases every day.


Newsletter sign-up

Weekly statistics, charts and insights to help you stay on top of the space industry.